Wind_Speed
12 12 12 11 10 9 8 8 8 8 8 7 6 6 6 5 5 6 6 7 7 7 8 10 11 12 12 12 12 12 13 13 13 14 14 15 16 16 16 16 16 16 15 14 13 12 12 13 14 14 15 15 14 12 10 8 6 4 4 7 10 11 12 12 13 17 20 21 21
12 12 12 12 11 10 10 9 9 9 8 8 8 8 7 6 5 5 6 6 7 9 9 10 10 12 12 12 12 11 12 12 12 13 13 14 14 15 15 15 15 15 15 14 13 12 12 12 12 13 13 14 14 13 12 10 8 6 4 5 7 9 10 11 12 14 17 20 21
12 12 13 12 12 12 11 10 10 9 9 9 10 9 8 8 7 6 6 6 7 9 10 10 10 11 12 13 12 12 11 11 11 12 12 13 13 14 14 14 14 14 14 14 13 12 11 11 10 11 12 13 13 14 13 12 10 8 5 4 5 6 8 9 11 12 14 17 20
12 12 13 13 12 12 12 11 11 10 9 10 10 10 9 8 8 7 7 7 7 7 9 10 10 11 12 12 12 12 11 11 10 11 11 12 12 13 13 13 13 13 14 13 12 11 10 9 9 9 10 11 12 13 13 12 11 9 7 5 4 4 6 7 9 11 13 15 18
12 12 12 12 12 12 12 12 11 11 10 10 10 10 9 8 8 8 8 8 7 7 8 9 10 11 11 11 12 12 12 10 9 9 10 11 12 12 12 13 13 13 13 13 12 11 10 9 8 8 9 9 10 11 12 11 11 10 8 7 6 4 4 6 7 8 10 13 15
12 12 11 11 11 12 12 12 12 11 11 11 10 10 8 7 7 8 7 7 8 9 9 8 9 10 10 10 10 11 12 11 9 9 9 10 11 11 12 12 12 12 12 12 12 11 10 9 8 7 8 8 9 10 10 10 10 10 9 8 7 6 5 5 6 7 8 10 12
12 12 11 11 11 11 12 12 12 12 12 11 11 10 9 8 8 8 7 8 10 11 10 9 10 10 10 9 10 11 12 11 9 8 8 9 9 10 11 11 11 11 11 11 11 11 10 9 8 8 7 8 8 9 9 10 9 9 9 9 8 7 6 5 5 6 7 8 10
13 12 12 11 11 11 11 12 11 12 12 12 11 11 10 10 9 9 8 8 9 10 10 10 10 10 10 9 9 10 11 11 10 9 8 8 9 9 9 10 10 10 10 10 11 11 10 10 9 8 8 8 8 9 9 9 9 9 9 9 9 8 7 6 6 5 6 6 8
13 13 12 12 12 11 11 11 11 11 12 12 11 11 10 10 10 9 9 8 8 9 9 9 8 9 9 8 9 10 11 11 10 9 8 8 8 8 9 9 9 9 10 10 10 10 10 9 9 9 8 8 8 8 8 8 8 8 8 8 8 8 7 6 6 5 5 5 6
13 13 12 12 12 12 12 12 12 12 12 12 11 11 10 10 10 9 9 8 9 10 9 8 7 8 8 8 9 9 10 11 11 10 9 9 8 8 8 8 8 9 9 9 9 9 9 9 9 9 8 7 7 7 7 8 8 8 8 8 8 8 7 6 6 5 5 5 5
13 13 12 12 12 12 12 12 12 12 12 12 11 11 10 10 9 9 9 10 10 10 9 8 8 8 8 8 8 8 9 9 10 11 10 9 8 8 7 8 8 8 8 9 9 9 8 8 8 8 8 7 7 6 6 7 7 7 7 7 7 7 7 6 6 6 6 5 5
12 12 12 12 12 13 13 13 13 13 12 12 12 11 11 10 9 9 10 10 10 10 10 9 8 8 8 8 8 8 8 8 9 10 10 10 9 8 7 7 7 7 7 7 8 8 8 8 8 7 7 7 7 6 6 6 6 7 7 7 7 7 7 7 7 6 6 6 5
12 12 12 12 13 13 13 13 14 14 13 13 12 12 11 10 10 9 10 10 10 10 10 9 9 8 8 8 8 8 8 8 8 9 10 10 9 8 7 6 6 6 6 6 6 7 7 7 7 7 7 7 7 7 6 6 6 6 6 7 7 7 7 7 7 6 6 6 5
11 12 12 12 13 13 13 13 14 14 14 13 12 12 12 11 10 10 10 10 10 10 10 9 9 8 8 7 7 7 7 8 8 9 10 10 10 8 7 6 6 6 6 6 5 6 6 6 6 6 6 6 6 6 6 6 6 5 5 6 7 7 7 7 6 6 6 6 6
10 11 12 12 12 13 13 13 13 13 13 12 12 12 12 12 11 11 11 11 11 11 10 10 10 9 8 8 8 8 9 9 9 9 9 9 10 9 7 5 5 6 5 5 5 5 5 6 6 6 6 6 6 6 6 6 6 5 5 5 5 6 7 7 7 6 6 6 7
9 10 11 11 12 12 12 12 12 12 12 12 11 11 11 12 12 11 11 11 11 11 11 11 10 9 9 9 9 9 10 10 9 9 9 8 9 9 8 6 5 5 5 5 5 5 5 5 5 6 5 5 5 5 5 5 5 5 5 5 4 5 5 6 6 6 6 6 7
7 8 9 10 10 11 11 11 12 12 12 11 11 11 11 12 12 12 12 12 12 12 12 11 10 10 9 9 9 9 9 9 9 9 8 8 9 9 9 7 6 6 6 5 5 5 5 5 5 5 5 5 5 4 4 4 4 5 5 5 4 4 4 5 5 6 6 5 6
6 7 8 9 9 10 10 11 11 11 11 11 12 12 12 12 12 12 12 12 12 12 12 12 11 10 10 9 9 9 9 9 9 9 9 9 9 10 9 9 8 7 7 5 4 4 4 5 5 5 5 4 4 4 4 4 4 4 4 5 4 4 4 4 4 5 5 6 5
4 5 6 7 8 9 10 10 11 11 11 12 12 12 12 12 12 12 12 12 12 12 12 12 12 11 11 10 10 10 10 10 11 11 11 11 11 10 10 10 9 8 7 6 4 4 4 4 4 5 5 4 4 4 4 3 3 3 4 4 5 4 4 3 3 3 4 5 5
2 3 5 6 7 8 9 10 10 11 12 12 12 13 13 13 13 13 12 12 12 13 13 13 13 12 12 11 11 12 12 12 12 12 12 12 11 11 10 10 9 9 8 7 5 4 4 4 4 4 5 4 4 4 4 3 3 3 3 4 4 5 4 4 3 3 3 3 4
1 2 4 5 6 7 8 9 10 11 12 12 13 13 13 13 13 13 13 12 13 13 13 14 14 13 13 12 12 12 12 12 12 12 12 12 12 12 11 11 11 10 9 8 6 5 5 5 4 4 4 4 4 4 4 3 3 3 3 3 4 4 5 4 4 3 3 2 3
2 3 3 4 5 6 7 8 9 10 11 12 13 13 13 13 13 13 13 13 13 13 14 14 14 14 14 13 12 12 12 11 12 13 13 13 13 12 12 12 12 10 9 8 7 6 6 5 5 5 5 4 4 4 4 4 4 3 3 3 3 4 4 4 4 3 3 2 2
4 4 4 4 5 6 7 8 9 10 11 12 12 13 13 14 14 14 14 14 14 14 14 14 14 14 14 14 13 12 12 12 12 13 14 14 14 13 13 13 12 11 10 9 8 7 6 6 6 5 5 5 5 5 5 5 4 4 4 3 3 3 3 4 4 4 3 3 2
5 5 5 6 6 6 7 7 8 9 10 11 12 13 13 14 14 14 14 15 15 15 14 14 14 14 14 14 14 13 13 12 12 13 14 15 14 14 13 13 13 12 11 10 9 8 7 6 5 5 5 5 5 5 5 5 5 5 4 4 4 3 3 3 3 3 3 3 2
8 8 8 8 8 8 8 8 8 9 10 10 11 12 13 14 14 14 14 15 15 15 15 14 14 14 15 15 15 15 15 14 13 13 13 14 14 14 14 14 14 13 12 11 10 9 7 6 6 6 5 5 5 5 6 6 7 6 5 5 5 4 4 3 3 3 3 3 2
10 10 10 10 10 10 10 9 9 9 10 10 11 12 13 13 14 14 15 15 15 15 14 14 14 14 15 15 15 15 15 15 15 14 13 13 13 14 14 15 15 15 14 12 11 9 8 7 7 7 7 6 6 5 5 6 7 7 6 6 5 5 4 4 4 3 3 3 3
12 12 12 12 12 12 12 11 11 11 10 10 11 12 12 13 14 14 14 14 14 14 14 14 14 15 15 15 15 15 16 16 15 15 14 14 13 14 14 15 16 16 15 13 11 10 9 8 9 9 9 7 6 6 6 6 7 7 7 6 6 5 5 4 4 4 4 3 3
13 13 13 13 13 13 13 13 12 12 11 11 11 12 12 13 14 14 14 14 14 14 13 14 14 15 15 15 15 15 15 15 15 15 15 15 15 15 15 15 16 16 16 14 13 11 10 9 10 10 11 10 8 7 6 6 6 7 6 6 6 6 5 5 5 5 4 4 3
14 13 13 13 13 14 14 14 13 13 12 12 12 12 13 13 14 14 14 13 13 13 13 13 13 13 14 14 14 14 14 14 15 15 15 16 16 16 16 16 16 17 16 15 14 13 12 11 10 11 11 12 11 9 8 7 7 7 7 6 6 6 6 5 5 5 5 4 4
14 14 14 13 13 14 14 14 14 13 13 13 13 13 13 13 14 14 13 13 13 13 12 12 12 12 13 13 13 13 12 13 14 15 16 17 17 17 17 17 17 17 17 16 16 15 14 12 11 11 11 12 13 11 9 8 8 8 8 8 7 7 6 6 6 5 5 5 5
15 15 14 14 14 14 14 14 14 14 14 13 13 13 14 14 13 13 13 13 13 13 13 13 13 14 14 14 13 13 13 13 13 14 15 16 17 18 18 18 18 18 17 17 17 16 15 14 12 11 11 13 14 13 12 10 9 9 9 9 8 8 7 6 6 6 6 6 5
14 15 15 15 15 15 15 15 15 15 14 14 14 14 14 14 14 14 13 13 13 13 13 13 14 14 15 15 14 14 14 13 13 14 15 16 17 18 18 19 19 19 18 18 17 17 16 15 13 12 12 12 14 15 13 11 11 10 10 10 9 9 8 7 6 6 6 6 6
14 15 15 15 15 15 15 15 15 16 16 16 16 15 15 15 15 14 14 13 13 13 13 14 14 14 14 14 14 14 14 14 14 14 15 15 16 17 18 18 19 19 19 18 18 18 18 16 14 13 12 12 14 15 15 14 12 11 10 10 10 10 9 8 7 7 7 7 6
14 15 15 15 15 15 15 15 16 16 17 17 17 17 16 16 15 14 14 13 12 13 13 14 14 14 14 14 14 14 14 14 13 14 14 15 16 16 17 18 18 19 20 19 19 19 18 17 16 14 13 13 14 16 16 15 13 12 11 11 11 11 10 9 8 8 7 7 7
14 15 16 16 16 16 16 15 16 16 17 18 18 18 17 16 15 14 14 13 12 12 13 14 15 15 14 15 14 14 14 14 14 14 14 14 15 16 17 18 19 19 20 19 20 20 19 18 17 15 14 13 14 16 16 15 14 13 12 11 11 11 11 10 9 8 8 8 7
14 14 15 16 16 16 16 15 15 16 16 17 18 18 17 16 15 14 14 13 12 13 14 14 14 14 15 15 15 15 14 14 14 14 14 15 15 16 17 19 19 19 19 20 20 20 20 19 18 16 15 14 14 15 16 15 14 13 12 11 11 11 12 11 10 9 9 8 8
14 14 14 15 15 15 15 15 15 15 15 16 16 16 16 16 15 14 14 13 13 13 14 14 14 14 15 15 15 15 15 14 14 14 15 15 16 16 17 18 19 19 19 19 20 21 21 20 19 17 16 15 15 16 16 15 15 14 13 12 12 12 12 12 12 11 10 9 9
14 14 14 14 15 15 15 14 14 14 15 16 16 16 16 15 15 14 14 13 13 13 13 14 14 14 15 15 14 14 15 15 15 15 15 15 16 16 17 17 18 18 19 19 20 21 21 21 20 18 17 16 16 17 16 16 15 14 14 13 13 12 12 13 13 12 11 10 10
14 14 14 14 14 14 15 14 14 14 15 16 16 16 16 15 15 14 14 13 13 13 14 14 14 14 14 13 13 14 14 15 15 15 15 16 16 16 17 17 18 18 18 18 19 21 22 22 21 20 18 17 18 18 17 16 15 14 15 15 14 13 13 13 13 13 12 11 11
15 14 14 13 14 14 14 15 15 14 15 15 15 16 16 16 15 15 14 13 13 14 14 15 15 15 14 13 13 14 14 15 15 16 16 16 16 17 17 18 18 18 18 18 19 20 22 22 22 21 19 18 18 18 18 17 15 14 15 16 16 15 13 13 13 13 12 12 12
15 14 14 14 14 14 14 15 15 15 15 15 15 16 16 16 16 15 15 14 13 14 14 14 15 14 14 13 13 14 14 15 15 16 16 16 17 17 18 18 18 18 18 18 19 20 21 22 22 22 21 18 19 18 18 17 15 14 15 15 16 15 14 13 13 12 12 12 12
Wind_Direction
267 266 266 267 269 269 268 272 277 281 285 288 288 292 298 301 303 306 309 311 312 314 318 320 319 319 322 327 334 341 345 348 351 354 356 357 356 357 358 0 2 3 3 3 2 4 11 19 22 25 29 33 35 35 33 27 14 334 269 242 230 221 215 213 217 217 216 214 211
270 268 267 266 267 268 268 268 271 276 280 286 291 294 295 296 296 300 304 306 308 312 316 317 318 319 321 323 327 332 338 342 345 348 351 354 354 355 356 358 0 1 1 3 3 4 7 13 18 19 21 26 30 34 36 32 25 9 328 275 249 235 225 216 213 216 219 219 216
273 271 269 267 267 267 266 265 267 270 276 282 288 290 290 293 294 296 299 300 303 309 315 319 322 324 324 324 325 328 332 336 339 342 345 348 351 353 355 357 358 360 1 2 4 5 5 8 14 16 17 18 23 30 35 35 30 23 6 329 284 256 240 230 220 216 217 219 218
275 274 272 270 268 266 265 266 268 270 274 280 285 287 288 290 292 295 297 299 301 305 312 319 325 327 328 328 327 327 328 332 334 337 339 343 347 350 353 354 356 358 0 2 4 5 4 4 9 14 16 15 17 23 28 32 32 30 23 6 336 296 267 251 240 229 220 217 217
278 277 276 273 269 266 264 264 266 269 273 278 282 286 288 288 290 294 300 302 300 301 307 315 322 326 328 330 328 326 326 331 333 333 335 339 343 347 350 352 354 357 360 1 3 4 4 4 6 11 15 17 17 18 21 27 30 31 29 21 10 345 307 281 267 253 236 223 218
278 279 278 275 271 266 263 263 264 266 270 274 277 279 280 282 286 293 297 295 295 298 303 309 316 323 328 328 326 324 326 331 334 334 332 336 340 344 348 351 353 355 358 0 3 4 4 4 5 7 11 15 15 17 19 22 24 28 32 32 26 12 350 317 296 280 261 242 229
275 277 278 277 273 269 266 264 264 265 268 270 273 273 272 275 280 285 288 290 294 300 305 311 316 322 326 325 323 324 326 330 335 334 331 333 336 341 347 350 352 354 356 358 1 4 5 5 5 4 6 7 10 12 15 17 18 22 29 34 31 24 12 353 328 306 285 264 246
271 274 276 277 275 272 269 266 264 264 266 270 273 274 274 273 274 277 282 288 294 301 306 312 316 319 322 322 322 323 326 329 333 333 330 329 332 338 343 348 352 353 354 357 360 3 4 6 5 5 5 4 4 5 8 12 15 19 24 31 33 30 23 13 356 333 307 282 260
272 274 276 276 276 274 271 268 265 264 265 268 272 275 276 276 276 278 280 283 287 294 302 307 308 311 315 318 319 321 324 327 330 331 329 327 330 334 340 346 351 353 353 354 358 1 4 6 5 6 6 4 1 358 358 2 8 13 19 27 33 34 31 24 14 359 334 306 278
274 277 278 278 277 275 273 271 268 265 264 266 268 271 274 276 278 280 280 278 280 289 297 300 299 300 306 311 315 317 320 323 326 327 327 327 329 332 337 343 350 353 353 352 355 359 2 5 7 8 7 5 1 355 352 353 359 5 11 20 27 33 37 36 30 20 3 340 309
277 279 279 279 278 277 277 276 274 271 268 266 266 268 271 274 276 277 278 278 282 289 294 295 293 294 298 303 308 312 315 317 322 324 325 327 327 329 332 338 345 350 352 351 353 357 1 4 7 7 7 5 3 359 354 351 352 356 2 9 16 25 32 37 37 32 22 5 340
280 280 280 279 278 278 279 279 277 275 272 270 268 268 269 271 271 273 275 279 283 288 291 291 290 290 292 297 302 306 310 312 317 320 322 323 324 324 326 331 336 343 348 350 352 356 360 2 4 5 5 5 5 5 3 357 352 353 355 359 5 16 28 35 36 36 32 19 359
284 283 282 282 281 281 281 281 280 279 277 274 273 272 271 270 269 269 271 275 279 283 285 284 286 286 286 289 295 300 304 307 311 315 317 319 320 321 322 324 327 333 340 344 349 354 356 357 0 360 360 2 6 7 5 1 357 354 354 354 358 8 18 25 28 31 33 29 15
288 287 286 287 286 285 284 284 283 283 282 281 279 277 276 273 270 268 268 271 274 277 279 279 281 280 279 281 286 290 294 299 304 308 312 315 316 317 317 317 318 323 329 335 343 348 350 351 355 356 355 355 1 4 3 1 0 358 356 355 356 360 5 10 14 19 24 27 22
294 293 292 292 291 290 289 289 288 288 287 287 284 282 280 278 274 270 267 268 270 273 275 276 276 276 275 275 275 279 286 292 297 302 306 309 311 312 311 307 307 311 318 325 332 339 343 343 346 349 351 352 354 358 0 1 0 0 359 358 356 355 356 359 0 5 12 20 19
300 299 298 297 296 296 295 294 293 292 292 291 287 284 281 280 277 273 268 266 266 268 270 273 274 274 274 273 273 278 283 288 292 296 300 302 304 306 306 300 297 299 306 315 321 328 332 332 334 339 344 347 349 353 358 359 359 1 1 359 356 353 351 351 352 355 359 8 15
304 303 302 301 302 301 300 299 298 297 296 293 289 285 282 281 279 276 271 266 264 264 266 268 270 270 269 269 271 274 277 281 285 289 293 295 297 299 299 294 288 288 294 304 311 315 320 323 325 329 334 338 342 346 352 356 359 2 4 2 359 355 351 347 347 348 349 354 8
304 305 305 305 306 305 304 302 301 301 300 297 293 289 285 283 281 278 273 267 263 263 263 265 265 263 262 262 263 265 267 270 274 279 285 290 292 293 292 288 283 283 287 292 294 299 307 314 320 323 324 328 333 338 343 350 357 3 6 6 3 359 354 347 344 342 344 347 356
301 304 307 309 309 308 306 305 304 304 302 299 295 293 290 288 285 281 277 271 266 262 261 261 260 259 258 258 259 260 262 264 268 273 280 287 290 289 286 283 281 282 285 283 280 284 291 300 310 315 315 318 323 329 334 340 349 358 4 7 6 4 359 353 346 342 340 340 343
298 305 309 311 312 311 309 308 307 305 303 300 297 296 294 292 289 286 282 276 270 264 260 258 256 255 255 256 258 260 263 264 268 272 278 285 287 286 281 278 276 278 280 278 274 274 279 285 294 301 305 309 315 321 326 329 333 341 352 359 4 4 2 358 351 345 339 335 332
318 313 312 312 313 313 311 310 308 306 304 301 300 298 296 294 292 290 286 280 274 268 262 258 255 253 252 253 256 260 262 264 267 271 275 281 283 283 279 274 271 271 272 272 268 264 264 270 275 284 291 297 303 309 315 318 321 324 332 344 354 359 359 358 354 348 337 330 325
332 317 311 310 310 311 310 309 308 307 305 303 302 300 298 296 294 291 288 283 278 273 268 262 258 254 252 252 253 256 259 261 264 268 272 277 281 283 280 274 269 267 268 267 263 257 253 257 262 268 276 284 290 296 300 304 312 316 320 324 335 344 351 355 354 351 342 332 324
315 308 307 306 305 305 305 307 308 308 307 306 305 303 300 298 295 292 289 286 282 278 274 269 264 259 254 252 251 252 254 256 259 264 269 273 278 281 280 274 268 265 264 261 259 254 249 251 256 261 266 273 279 285 290 294 301 309 313 311 311 319 331 340 347 350 346 337 330
302 301 301 300 299 299 300 302 305 307 309 309 308 306 303 300 296 293 290 287 285 283 280 275 270 265 259 254 250 250 250 252 254 259 264 269 273 277 278 274 268 262 259 257 256 252 246 243 249 255 259 264 269 276 281 284 288 296 304 307 301 297 301 313 327 337 341 338 337
299 298 297 297 296 295 296 298 302 305 308 310 309 308 306 302 298 295 291 289 288 286 284 281 277 271 265 259 254 250 249 249 250 252 256 261 267 271 274 273 268 262 257 256 257 254 245 237 240 246 253 257 262 267 272 274 275 280 289 296 295 290 284 285 296 309 318 325 329
300 299 298 297 295 295 295 296 298 301 304 307 308 308 306 303 300 296 293 291 289 287 285 284 281 277 272 266 260 255 252 249 249 249 250 254 258 263 268 269 267 262 257 255 258 254 243 234 235 241 247 252 257 260 264 269 271 274 277 283 287 287 280 273 272 279 291 302 309
304 302 300 297 296 296 295 295 296 298 300 303 304 304 304 302 299 296 294 292 289 286 284 283 281 279 277 273 268 263 257 252 250 249 249 249 251 255 259 263 264 261 258 255 256 251 241 231 233 238 242 246 249 252 255 259 267 271 274 281 284 284 278 267 260 261 271 282 292
312 307 302 299 298 297 295 294 295 297 298 298 298 299 299 298 297 294 292 289 288 285 283 281 280 280 279 276 273 268 263 257 252 249 248 248 249 250 253 256 259 259 257 254 253 249 241 230 229 234 239 241 243 246 250 253 258 264 271 279 282 282 276 264 256 254 259 268 277
318 313 308 305 302 299 297 296 296 296 296 295 294 293 294 293 292 290 288 286 284 282 279 277 277 278 277 275 273 271 268 262 256 252 249 248 248 248 249 252 255 256 254 252 250 248 242 232 227 230 235 239 240 243 246 248 252 258 263 269 274 276 272 264 254 249 250 257 264
323 319 315 311 306 303 302 300 298 296 294 293 291 290 289 289 288 287 285 282 279 277 275 274 272 271 270 270 270 269 267 264 260 255 252 250 250 249 250 252 253 254 252 249 248 247 244 236 227 226 231 237 241 242 242 243 249 257 262 263 264 266 266 262 253 247 245 247 251
327 324 320 316 311 308 305 302 299 297 295 292 290 288 287 287 285 284 282 281 278 276 274 271 268 266 266 267 266 265 264 263 261 258 255 254 253 253 253 254 255 253 250 247 245 245 244 239 229 224 227 235 240 241 240 239 245 254 260 259 256 255 257 258 253 246 241 239 241
330 327 324 320 315 310 305 303 301 298 296 293 290 289 287 286 283 282 281 280 278 276 273 269 267 265 264 264 263 263 263 261 259 258 257 257 256 257 257 257 257 254 250 244 243 243 243 240 231 224 224 231 236 238 239 239 244 250 255 255 251 247 247 250 249 245 239 235 234
331 329 327 324 318 312 307 304 302 299 297 294 291 289 287 285 283 282 281 279 275 272 270 268 265 263 261 260 260 261 261 260 259 258 258 259 260 260 260 259 258 254 249 243 240 240 240 239 232 225 223 229 234 238 240 241 242 244 248 252 250 244 239 240 243 243 239 234 231
331 329 328 325 321 316 311 307 303 300 297 294 292 289 287 286 285 283 280 277 273 271 269 268 265 263 261 260 258 258 258 258 257 257 258 260 261 262 261 259 257 254 249 243 239 238 238 237 232 225 222 225 233 238 239 239 239 238 242 249 251 244 235 232 236 238 238 235 233
329 328 326 324 322 319 316 312 306 300 297 294 292 290 288 287 285 283 281 277 273 270 268 267 265 264 262 261 258 256 256 255 255 255 256 258 260 261 260 259 258 255 251 244 239 236 235 234 231 225 220 221 231 236 237 235 235 235 239 247 250 244 233 227 229 232 234 233 231
326 325 323 322 321 321 319 316 310 304 298 294 292 291 290 288 286 284 282 279 274 270 267 266 264 263 261 260 258 256 254 253 254 254 254 255 257 258 258 259 259 258 253 246 239 235 233 232 230 225 220 219 228 234 235 233 232 234 238 245 249 243 232 223 223 225 229 230 229
323 322 320 319 318 318 317 315 311 306 301 297 294 293 291 290 287 284 282 279 273 269 267 265 263 261 259 258 257 256 255 254 253 253 253 253 253 254 256 258 260 259 255 248 240 234 232 230 227 223 219 218 225 230 232 231 232 234 237 242 249 246 234 223 219 220 222 225 226
322 320 318 315 314 314 313 313 310 307 303 301 299 296 292 290 287 285 281 277 272 268 266 264 261 259 258 259 259 258 257 255 253 251 251 250 251 251 254 256 259 259 257 250 241 234 230 228 226 222 218 219 224 228 230 231 233 235 237 240 247 247 237 224 218 216 217 220 222
320 318 315 313 311 310 310 310 308 307 305 304 302 299 295 291 288 284 281 276 271 268 266 264 263 261 260 259 259 259 258 255 252 250 249 248 248 249 251 254 257 258 257 252 243 235 229 226 224 221 218 218 223 227 229 229 231 234 237 239 243 245 239 226 217 213 213 216 219
319 317 314 311 309 308 308 308 307 306 306 304 302 300 297 293 289 286 282 276 271 268 267 266 265 264 262 259 258 257 257 255 252 250 248 247 248 249 251 253 254 256 256 254 246 237 230 226 224 221 218 218 223 226 228 228 229 232 236 239 240 241 237 227 217 211 210 214 217
318 316 314 311 309 308 307 306 305 306 306 305 302 301 299 296 292 288 283 277 272 269 268 267 267 265 263 259 257 257 256 255 252 250 248 248 248 249 250 252 253 254 254 253 247 239 231 226 223 220 217 217 222 225 226 226 227 230 234 237 238 237 233 226 218 212 209 212 215
Height
760 760 760 760 760 759 759 759 758 758 757 757 757 756 756 755 755 754 753 753 752 751 750 749 749 748 747 747 746 745 744 743 742 741 741 740 739 738 737 736 735 734 733 732 731 730 729 728 727 725 724 723 723 722 722 722 721 722 722 722 722 722 722 723 723 724 725 725 725
759 759 759 759 759 759 758 758 758 757 757 756 756 755 755 755 754 754 753 753 752 751 750 749 748 748 747 747 746 745 744 743 742 741 741 740 739 738 738 737 736 735 734 733 732 731 730 729 728 727 726 725 724 723 723 722 722 722 722 722 722 722 722 722 723 723 724 725 725
758 758 758 758 758 758 758 758 757 757 756 756 755 754 754 754 754 753 753 753 752 751 750 749 748 748 747 747 746 745 744 743 742 741 741 740 739 738 738 737 737 736 735 734 733 732 731 730 729 728 728 727 726 725 724 723 723 723 723 723 723 722 722 722 722 723 723 724 725
758 758 758 757 757 757 757 757 757 756 756 755 754 754 754 754 753 753 753 752 752 751 750 749 748 748 747 747 746 746 745 744 743 742 741 740 739 738 738 737 737 736 735 734 733 733 732 731 731 730 729 728 728 726 725 724 724 724 724 723 723 723 722 722 722 722 723 723 724
757 757 757 757 756 756 756 756 756 756 755 755 754 754 753 753 753 753 752 752 751 751 750 749 748 748 747 747 747 746 745 744 743 742 741 740 739 738 738 737 737 736 735 735 734 733 733 732 732 731 730 730 729 728 727 726 725 725 724 724 723 723 723 722 722 722 722 722 723
756 756 756 756 755 755 755 755 755 755 754 754 754 753 753 753 753 753 752 752 751 751 750 749 748 748 748 747 747 746 745 744 743 742 741 740 739 738 738 737 736 736 735 735 734 734 733 733 732 732 731 731 730 729 728 727 727 726 725 724 724 723 723 723 722 722 722 722 722
755 755 755 755 754 754 754 754 754 754 753 753 753 753 753 753 753 753 753 752 751 750 749 749 748 748 748 748 747 746 745 744 743 742 741 740 739 738 738 737 736 736 736 735 735 734 734 733 733 732 732 731 731 730 729 728 728 727 726 725 724 723 723 723 722 722 722 721 721
754 754 754 754 753 753 753 753 753 753 753 753 752 752 752 752 752 752 752 752 751 750 749 748 748 748 748 748 747 746 745 744 743 742 741 740 740 739 738 737 737 736 736 735 735 734 734 733 733 733 732 732 731 730 730 729 728 728 727 725 724 723 723 723 722 722 722 721 721
753 753 753 753 753 753 752 752 752 752 752 752 752 751 751 751 751 751 751 751 751 750 749 748 748 748 748 748 747 746 745 744 743 742 741 740 740 739 738 738 737 736 736 735 735 734 734 734 733 733 732 732 731 731 730 729 729 728 727 726 725 724 723 723 722 722 722 721 721
753 753 753 752 752 752 751 751 751 751 751 751 751 751 750 750 750 750 750 750 749 749 749 748 748 748 748 748 747 747 745 744 743 742 741 741 740 739 738 738 737 737 736 736 735 735 734 734 733 733 733 732 732 731 731 730 729 728 728 727 725 724 723 723 722 722 721 721 721
752 752 752 752 751 751 750 750 750 750 750 750 750 750 749 749 749 749 749 749 748 748 748 748 748 748 748 747 747 746 746 745 743 743 742 741 740 739 738 738 737 737 736 736 736 735 735 734 734 733 733 732 732 731 731 730 730 729 728 727 726 725 724 723 722 721 721 721 721
751 751 751 751 750 750 750 749 749 749 749 749 749 749 749 748 748 748 748 748 747 747 747 748 748 747 747 747 746 746 745 745 744 743 742 741 740 739 739 738 738 737 737 736 736 735 735 735 734 734 733 733 732 732 731 730 730 729 728 728 726 725 724 723 722 721 721 721 721
750 750 750 750 750 749 749 749 748 748 748 748 748 748 748 748 748 747 747 747 747 747 747 747 747 747 747 746 746 745 745 744 744 743 742 741 740 739 739 738 738 737 737 737 736 736 735 735 735 734 734 733 733 732 731 731 730 729 728 728 727 726 724 723 722 721 721 721 721
750 749 749 749 749 749 748 748 748 748 748 747 747 747 747 747 747 746 746 746 746 746 746 746 746 746 746 746 745 745 744 744 743 743 742 741 740 739 739 738 738 737 737 737 736 736 736 735 735 734 734 733 733 732 731 731 730 729 728 728 727 726 725 724 723 722 721 721 721
749 749 748 748 748 748 748 748 748 747 747 747 747 747 746 746 746 746 745 745 745 745 745 745 745 745 745 745 745 744 744 743 743 742 742 741 740 739 739 738 738 737 737 737 736 736 736 735 735 734 734 733 733 732 731 730 730 729 728 727 727 726 725 724 724 723 722 721 721
748 748 748 748 748 747 747 747 747 747 747 746 746 746 746 745 745 745 744 744 744 744 744 744 744 744 744 744 744 743 743 743 742 742 741 741 740 739 738 738 738 737 737 737 736 736 736 735 735 734 734 733 733 732 731 730 729 729 728 727 726 726 725 725 724 723 723 722 721
747 747 747 747 747 746 746 746 746 746 746 746 745 745 745 744 744 744 743 743 743 743 743 743 743 744 744 743 743 743 743 743 742 741 741 740 739 739 738 738 737 737 737 736 736 736 735 735 735 734 734 733 733 732 731 730 730 729 728 727 726 726 725 725 724 724 723 722 721
746 746 746 746 746 746 746 745 745 745 745 745 745 744 744 744 743 743 743 743 743 742 742 743 743 743 743 743 743 743 743 742 742 741 740 740 739 738 738 737 737 737 736 736 736 736 735 735 735 734 734 733 733 732 731 730 730 729 728 727 726 726 725 725 724 724 723 722 721
745 745 745 745 745 745 745 745 745 744 744 744 744 743 743 743 743 742 742 742 741 741 741 741 742 742 742 742 742 742 742 741 741 740 739 739 738 738 737 737 736 736 736 736 735 735 735 735 735 734 734 733 733 732 731 730 730 729 728 727 727 726 725 724 724 723 723 722 722
744 744 744 744 744 744 744 744 744 744 743 743 743 743 742 742 742 741 741 741 740 740 740 740 740 740 741 741 741 741 740 740 740 739 738 738 737 737 736 736 736 735 735 735 735 735 735 735 735 734 734 733 733 732 731 731 730 729 728 728 727 726 725 724 724 723 723 723 722
744 743 743 743 743 743 743 743 743 743 743 743 742 742 742 741 741 740 740 740 739 739 739 739 739 739 739 739 740 739 739 739 739 738 738 737 736 736 735 735 735 734 734 734 734 735 735 734 734 734 734 733 733 732 732 731 730 729 728 728 727 726 725 725 724 723 723 723 722
743 743 743 743 742 742 742 742 742 742 742 742 741 741 741 740 740 739 739 739 738 738 738 738 738 738 738 738 738 738 738 738 738 737 737 736 736 735 735 734 734 733 733 733 733 734 734 734 734 734 734 733 733 732 732 731 730 729 729 728 727 727 726 725 724 724 723 723 722
743 743 742 742 741 741 741 741 741 741 741 740 740 740 740 739 739 739 738 738 738 737 737 737 737 737 737 737 737 737 737 737 737 736 736 735 735 734 734 733 733 733 733 733 733 733 733 733 733 733 733 733 733 732 732 731 730 730 729 728 728 727 726 725 725 724 723 723 723
743 742 742 741 741 740 740 740 740 739 739 739 739 739 739 738 738 738 737 737 736 736 736 736 736 736 736 736 736 736 736 736 736 735 735 734 734 733 733 733 732 732 732 732 732 732 732 733 733 733 733 733 733 732 732 731 730 730 729 728 728 727 726 726 725 724 724 723 723
742 742 741 741 740 740 739 739 739 738 738 738 738 738 738 738 737 737 737 736 736 735 735 735 735 734 734 734 734 734 734 734 734 734 734 733 733 732 732 732 731 731 731 731 731 731 731 732 733 733 733 733 733 732 732 731 730 730 729 728 728 727 726 726 725 724 724 723 723
742 741 741 740 740 739 739 738 738 738 737 737 737 737 736 736 736 736 736 735 735 734 734 734 734 733 733 733 733 733 733 733 733 733 733 733 732 732 731 731 730 730 730 730 730 730 730 731 732 732 732 732 732 732 731 731 730 729 729 728 728 727 726 726 725 724 724 723 723
741 741 740 740 739 739 738 738 737 737 736 736 736 735 735 735 735 735 734 734 734 734 733 733 733 732 732 732 732 732 732 732 732 732 732 732 731 731 730 730 729 729 729 729 729 729 729 730 731 731 731 732 732 731 731 730 730 729 729 729 728 727 727 726 725 724 724 723 723
741 740 739 739 739 738 738 737 737 736 736 735 734 734 734 733 733 733 733 733 733 733 733 732 732 731 731 731 731 730 730 731 731 731 731 730 730 730 729 729 728 728 728 728 728 728 728 729 730 730 731 731 731 731 731 730 730 729 729 729 728 728 727 726 725 725 724 723 723
740 739 739 738 738 738 737 737 736 736 735 734 734 733 733 732 732 732 732 732 732 732 732 731 731 730 730 730 729 729 729 729 729 729 729 729 729 728 728 728 728 727 727 727 728 728 728 728 728 729 730 730 730 730 730 730 729 729 728 728 728 728 727 726 725 725 724 723 723
740 739 738 738 738 737 737 736 736 735 734 733 733 732 732 731 731 731 731 730 730 730 730 730 730 730 729 729 728 728 728 728 728 728 728 728 728 727 727 727 727 726 726 726 726 727 727 727 728 728 729 729 729 729 729 729 729 728 728 728 728 727 727 726 725 725 724 723 723
740 739 738 737 737 737 736 735 735 734 733 733 732 731 731 730 730 729 729 729 729 729 729 729 729 728 728 728 728 727 727 727 727 727 727 726 726 726 726 726 726 725 725 725 726 726 726 726 727 727 728 728 728 728 728 728 728 728 728 728 727 727 726 726 725 725 724 724 723
740 738 738 737 736 736 735 735 734 733 733 732 731 730 730 729 729 728 728 728 728 728 728 727 727 727 727 726 726 726 726 725 725 725 725 725 725 725 724 724 724 724 724 724 725 725 725 725 726 726 727 728 727 727 727 727 727 727 727 727 727 726 726 726 725 725 724 724 723
739 738 737 736 735 735 734 733 733 733 732 731 730 729 729 728 728 727 727 727 727 726 726 726 726 725 725 725 725 724 724 724 724 724 723 723 723 723 723 723 723 723 723 723 723 724 724 724 724 725 726 727 726 726 726 726 726 726 726 726 726 725 725 725 725 724 724 723 723
739 738 737 736 735 734 733 732 732 731 731 730 729 728 728 727 727 726 726 726 726 725 725 724 724 724 724 724 723 723 723 723 722 722 722 722 722 722 722 722 722 722 722 722 723 723 723 723 723 724 725 726 725 725 725 725 725 725 725 725 725 725 724 724 724 724 723 723 723
738 738 737 736 734 733 732 731 730 730 730 729 728 728 727 726 726 725 725 725 724 724 723 723 723 723 722 722 722 722 722 721 721 721 721 720 721 720 720 720 720 720 721 721 722 722 722 722 723 723 724 725 725 724 724 724 724 724 724 724 724 724 724 723 723 723 723 723 723
738 737 736 735 734 733 731 730 730 729 729 728 727 727 726 725 725 724 724 724 723 723 722 722 721 721 721 720 720 720 720 720 719 719 719 719 719 719 719 718 718 719 719 720 720 721 721 721 722 722 723 724 724 723 723 723 723 723 723 723 723 723 723 723 723 723 723 722 722
737 736 735 734 733 732 731 730 729 728 728 727 726 725 724 724 723 723 723 723 722 722 721 720 720 720 719 719 719 718 718 718 718 718 718 718 718 717 717 717 717 718 718 718 719 719 720 720 721 721 722 723 723 722 722 722 722 722 722 722 722 722 722 722 722 722 722 722 722
737 736 735 734 733 732 730 729 729 728 727 726 725 724 723 723 722 722 722 722 721 720 720 719 719 718 718 718 717 717 717 717 716 716 716 716 716 716 716 716 716 716 716 717 718 718 719 719 719 720 721 721 721 721 721 721 721 721 721 721 721 721 722 721 721 721 721 721 721
736 735 734 733 732 731 730 729 728 727 726 725 724 723 722 722 721 721 720 720 720 719 718 718 717 717 717 716 716 715 715 715 715 715 715 715 714 714 715 715 715 715 715 715 716 717 717 718 718 719 719 720 720 720 720 720 721 721 720 720 720 721 721 721 720 720 720 721 721
735 734 733 732 731 730 729 728 727 726 725 724 723 722 721 721 720 719 719 719 718 718 717 717 716 715 715 715 715 714 714 713 713 713 713 713 713 713 713 713 713 713 713 714 714 715 716 717 717 718 718 719 718 718 719 719 720 720 719 719 719 720 720 720 720 720 720 720 720
734 733 733 731 730 729 728 727 726 725 724 723 722 721 720 719 719 718 718 717 717 717 716 715 715 714 714 713 713 713 712 712 712 712 712 712 712 712 711 712 712 712 712 712 713 713 714 715 716 716 717 717 717 717 718 718 719 719 718 718 718 718 719 719 719 719 719 719 719